Вернуться в каталог

STARLINK-35255

АктивенСвязьSSO
NORAD 65602·PAYLOAD·🇺🇸 United States

Запущен Sep 13, 2025 с Cape Canaveral Space Force Station

Loading…

Ближайшие Пролёты (ближайшие 24 часа)

TLE

СвежийSource: CelesTrak SupGP

Эпоха: Sep 14, 2026, 20:50 UTC

1 65602C 25207L   26257.86854167  .02322800  00000+0  10209+0 0  2576
2 65602  97.2841 320.5746 0001653  82.6295 192.3702 15.20809109    16

Отслеживайте STARLINK-35255 в реальном времени с AllMySat

Download on the App Store